CCM26A LFKJ-LFMN

Flight info

Callsign CCM26A
Flight time 0h 39m
Altitude 14000
Route LONSU
Aircraft A320/M-SDE3FGHIRWY/LB1

Departure

Time 2026-05-01 07:37
Airport Ajaccio Napoléon Bonaparte airport (LFKJ)

Arrival

Time 2026-05-01 08:16
Airport Nice-Côte d'Azur Airport (LFMN)
Time Latitude Longitude Altitude Speed Heading
2026-05-01 07:23 41.92083 8.79634 21 ft 0 kts 315°
2026-05-01 07:32 41.92118 8.79656 22 ft 6 kts 75°
2026-05-01 07:32 41.92111 8.79704 21 ft 5 kts 111°
2026-05-01 07:33 41.92188 8.79786 21 ft 9 kts 24°
2026-05-01 07:33 41.92241 8.79817 24 ft 8 kts 24°
2026-05-01 07:33 41.92356 8.79890 21 ft 12 kts 25°
2026-05-01 07:34 41.92428 8.79936 22 ft 11 kts 25°
2026-05-01 07:34 41.92604 8.80044 22 ft 16 kts 25°
2026-05-01 07:34 41.92695 8.80102 23 ft 14 kts 25°
2026-05-01 07:35 41.92784 8.80170 22 ft 15 kts 39°
2026-05-01 07:35 41.92866 8.80276 22 ft 17 kts 44°
2026-05-01 07:35 41.92940 8.80375 22 ft 13 kts 45°
2026-05-01 07:35 41.92964 8.80490 24 ft 13 kts 102°
2026-05-01 07:36 41.92901 8.80555 26 ft 11 kts 178°
2026-05-01 07:36 41.92832 8.80516 27 ft 13 kts 205°
2026-05-01 07:36 41.92574 8.80357 23 ft 79 kts 205°
2026-05-01 07:36 41.91873 8.79920 21 ft 140 kts 204°
2026-05-01 07:37 41.89914 8.78652 1119 ft 157 kts 207°
2026-05-01 07:37 41.89004 8.77847 1825 ft 158 kts 215°
2026-05-01 07:37 41.88054 8.76961 2234 ft 177 kts 214°
2026-05-01 07:38 41.86996 8.75976 2552 ft 198 kts 213°
2026-05-01 07:38 41.85795 8.74857 2840 ft 223 kts 214°
2026-05-01 07:38 41.82940 8.72210 3011 ft 263 kts 214°
2026-05-01 07:39 41.81427 8.70816 3011 ft 264 kts 214°
2026-05-01 07:39 41.79916 8.69419 3018 ft 265 kts 214°
2026-05-01 07:39 41.76812 8.66620 4820 ft 269 kts 212°
2026-05-01 07:40 41.75245 8.65218 5754 ft 273 kts 212°
2026-05-01 07:40 41.73680 8.63791 6666 ft 278 kts 217°
2026-05-01 07:40 41.72426 8.61796 7484 ft 286 kts 244°
2026-05-01 07:40 41.71945 8.59219 8327 ft 289 kts 271°
2026-05-01 07:41 41.72360 8.56610 9197 ft 289 kts 297°
2026-05-01 07:41 41.73330 8.54253 10132 ft 290 kts 302°
2026-05-01 07:41 41.75446 8.49302 10959 ft 329 kts 302°
2026-05-01 07:42 41.76614 8.46547 11277 ft 349 kts 302°
2026-05-01 07:42 41.77803 8.43717 11898 ft 356 kts 301°
2026-05-01 07:42 41.79021 8.40809 12649 ft 360 kts 302°
2026-05-01 07:42 41.80252 8.37875 13414 ft 363 kts 302°
2026-05-01 07:43 41.81594 8.34993 14034 ft 365 kts 309°
2026-05-01 07:43 41.83289 8.32474 14187 ft 363 kts 320°
2026-05-01 07:43 41.87763 8.28824 14240 ft 392 kts 341°
2026-05-01 07:44 41.93086 8.27111 14236 ft 395 kts 349°
2026-05-01 07:44 41.98423 8.25570 14236 ft 395 kts 349°
2026-05-01 07:45 42.01110 8.24786 14233 ft 395 kts 349°
2026-05-01 07:45 42.03798 8.24004 14234 ft 395 kts 349°
2026-05-01 07:45 42.06480 8.23228 14234 ft 395 kts 349°
2026-05-01 07:45 42.09170 8.22450 14231 ft 395 kts 349°
2026-05-01 07:46 42.11857 8.21672 14235 ft 395 kts 349°
2026-05-01 07:46 42.14539 8.20895 14245 ft 394 kts 349°
2026-05-01 07:46 42.19855 8.19354 14239 ft 391 kts 350°
2026-05-01 07:47 42.22509 8.18583 14235 ft 390 kts 349°
2026-05-01 07:47 42.25167 8.17815 14244 ft 392 kts 349°
2026-05-01 07:47 42.27834 8.17041 14245 ft 391 kts 349°
2026-05-01 07:47 42.30491 8.16260 14244 ft 390 kts 349°
2026-05-01 07:48 42.35779 8.14702 14243 ft 389 kts 349°
2026-05-01 07:48 42.38434 8.13929 14243 ft 389 kts 350°
2026-05-01 07:48 42.41034 8.13171 14251 ft 384 kts 350°
2026-05-01 07:49 42.43658 8.12406 14254 ft 387 kts 350°
2026-05-01 07:49 42.48935 8.10867 14253 ft 388 kts 350°
2026-05-01 07:49 42.51562 8.10099 14256 ft 384 kts 349°
2026-05-01 07:50 42.54192 8.09329 14257 ft 388 kts 349°
2026-05-01 07:50 42.59484 8.07768 14267 ft 387 kts 350°
2026-05-01 07:50 42.62110 8.06991 14264 ft 386 kts 349°
2026-05-01 07:51 42.64706 8.06226 14265 ft 388 kts 349°
2026-05-01 07:51 42.67352 8.05451 14266 ft 388 kts 350°
2026-05-01 07:51 42.69987 8.04681 14267 ft 385 kts 351°
2026-05-01 07:52 42.75236 8.03131 14280 ft 389 kts 351°
2026-05-01 07:52 42.77906 8.02653 14277 ft 387 kts
2026-05-01 07:52 42.80569 8.02826 14279 ft 381 kts
2026-05-01 07:53 42.85887 8.03623 14283 ft 385 kts
2026-05-01 07:53 42.88542 8.04018 14280 ft 383 kts
2026-05-01 07:53 42.91165 8.04410 14287 ft 387 kts
2026-05-01 07:53 42.93831 8.04809 14289 ft 385 kts
2026-05-01 07:54 42.99136 8.05592 14299 ft 386 kts
2026-05-01 07:55 43.07104 8.06791 14305 ft 386 kts
2026-05-01 07:55 43.12390 8.07586 14302 ft 385 kts
2026-05-01 07:56 43.20388 8.08805 14309 ft 387 kts
2026-05-01 07:56 43.25757 8.09213 14310 ft 388 kts 354°
2026-05-01 07:57 43.28373 8.08250 14308 ft 394 kts 339°
2026-05-01 07:57 43.32706 8.03616 14307 ft 404 kts 311°
2026-05-01 07:58 43.35562 7.96969 14304 ft 407 kts 302°
2026-05-01 07:58 43.38380 7.90168 14308 ft 410 kts 302°
2026-05-01 07:59 43.41200 7.83351 14309 ft 410 kts 301°
2026-05-01 07:59 43.43996 7.76513 14312 ft 410 kts 301°
2026-05-01 08:00 43.44710 7.61537 14303 ft 426 kts 237°
2026-05-01 08:01 43.38669 7.52590 14302 ft 425 kts 231°
2026-05-01 08:01 43.36910 7.49349 14298 ft 417 kts 236°
2026-05-01 08:01 43.35429 7.46037 14298 ft 397 kts 242°
2026-05-01 08:02 43.33164 7.39249 13141 ft 399 kts 251°
2026-05-01 08:02 43.32320 7.35606 12144 ft 398 kts 256°
2026-05-01 08:03 43.31302 7.28633 11538 ft 342 kts 264°
2026-05-01 08:03 43.31069 7.25511 11367 ft 318 kts 269°
2026-05-01 08:03 43.31061 7.19647 10385 ft 299 kts 276°
2026-05-01 08:04 43.31432 7.14985 10114 ft 294 kts 282°
2026-05-01 08:04 43.32482 7.08607 9279 ft 297 kts 290°
2026-05-01 08:05 43.33883 7.03330 7877 ft 293 kts 297°
2026-05-01 08:05 43.34439 7.01649 7507 ft 288 kts 299°
2026-05-01 08:05 43.35310 6.99292 7367 ft 266 kts 302°
2026-05-01 08:06 43.37084 6.95278 7146 ft 228 kts 309°
2026-05-01 08:06 43.39117 6.91562 6786 ft 195 kts 315°
2026-05-01 08:07 43.40931 6.90053 6286 ft 175 kts 356°
2026-05-01 08:07 43.43172 6.90517 5886 ft 161 kts 39°
2026-05-01 08:08 43.43981 6.91523 5783 ft 157 kts 45°
2026-05-01 08:08 43.45558 6.93588 5428 ft 156 kts 46°
2026-05-01 08:09 43.47109 6.95684 5023 ft 155 kts 47°
2026-05-01 08:09 43.47870 6.96719 4818 ft 153 kts 48°
2026-05-01 08:09 43.48622 6.97743 4610 ft 152 kts 48°
2026-05-01 08:10 43.50121 6.99787 4198 ft 152 kts 47°
2026-05-01 08:10 43.51608 7.01814 3793 ft 150 kts 48°
2026-05-01 08:11 43.53028 7.03753 3410 ft 136 kts 48°
2026-05-01 08:11 43.54357 7.05569 3051 ft 134 kts 48°
2026-05-01 08:12 43.55671 7.07366 2699 ft 133 kts 49°
2026-05-01 08:12 43.56324 7.08259 2513 ft 132 kts 49°
2026-05-01 08:12 43.57621 7.10034 2172 ft 131 kts 49°
2026-05-01 08:13 43.58258 7.10907 1988 ft 131 kts 49°
2026-05-01 08:13 43.58904 7.11791 1808 ft 132 kts 50°
2026-05-01 08:13 43.60190 7.13553 1465 ft 129 kts 50°
2026-05-01 08:14 43.60832 7.14433 1276 ft 130 kts 51°
2026-05-01 08:14 43.61479 7.15321 1092 ft 131 kts 50°
2026-05-01 08:14 43.62122 7.16203 920 ft 132 kts 50°
2026-05-01 08:14 43.62769 7.17091 743 ft 131 kts 49°
2026-05-01 08:15 43.63413 7.17974 575 ft 131 kts 49°
2026-05-01 08:15 43.64681 7.19715 221 ft 128 kts 49°
2026-05-01 08:15 43.65310 7.20579 50 ft 127 kts 49°
2026-05-01 08:16 43.65868 7.21351 22 ft 83 kts 45°
2026-05-01 08:16 43.66144 7.21731 22 ft 45 kts 45°
2026-05-01 08:16 43.66324 7.21955 24 ft 28 kts 32°
2026-05-01 08:16 43.66458 7.22036 23 ft 14 kts 20°
2026-05-01 08:17 43.66533 7.22053 22 ft 8 kts 339°
2026-05-01 08:17 43.66568 7.22008 22 ft 6 kts 317°
2026-05-01 08:17 43.66596 7.21970 22 ft 9 kts 314°
2026-05-01 08:17 43.66641 7.21906 22 ft 9 kts 307°
2026-05-01 08:18 43.66631 7.21837 22 ft 7 kts 224°
2026-05-01 08:18 43.66546 7.21721 23 ft 8 kts 225°
2026-05-01 08:19 43.66530 7.21634 22 ft 3 kts 309°
2026-05-01 08:19 43.66544 7.21613 23 ft 3 kts 314°
2026-05-01 08:19 43.66554 7.21600 22 ft 1 kts 314°
2026-05-01 08:19 43.66556 7.21597 22 ft 0 kts 314°